When you browse on this site, cookies collect data to enhance your experience and personalize the content and advertising you see.
Visit our Privacy Policy to learn more. By continuing to use the site, you agree to this use of cookies and data.
  • In Hungary
  • List of Countries
  • For 7 days
  • Water Temperature
  • Weather Map
  • News
  • Weather Widgets
  • user-avatar
    Login

    Hourly Weather Vishnyakovo

    Today, 19 January, Sunday

    Time Temperature Precipitation Wind Pressure Humidity
    00:00 -2°C° 0 mm 3 mps 752 mmHg 86%
    01:00 -2°C° 0 mm 3 mps 752 mmHg 86%
    02:00 -2°C° 0 mm 3 mps 753 mmHg 92%
    03:00 -2°C° 0 mm 3 mps 753 mmHg 93%
    04:00 -4°C° 0 mm 3 mps 753 mmHg 93%
    05:00 -3°C° 0 mm 2 mps 753 mmHg 94%
    06:00 -4°C° 0 mm 3 mps 754 mmHg 93%
    07:00 -2°C° 0 mm 3 mps 754 mmHg 92%
    08:00 -2°C° 0 mm 3 mps 755 mmHg 90%
    09:00 -1°C° 0 mm 3 mps 755 mmHg 89%
    10:00 -1°C° 0 mm 3 mps 755 mmHg 88%
    11:00 0°C° 0 mm 3 mps 755 mmHg 87%
    12:00 0°C° 0 mm 3 mps 755 mmHg 87%
    13:00 -1°C° 0 mm 4 mps 755 mmHg 86%
    14:00 -1°C° 0 mm 4 mps 755 mmHg 86%
    15:00 -1°C° 0 mm 4 mps 755 mmHg 86%
    16:00 -1°C° 0 mm 4 mps 755 mmHg 85%
    17:00 -1°C° 0 mm 4 mps 755 mmHg 85%
    18:00 -1°C° 0 mm 4 mps 755 mmHg 86%
    19:00 -1°C° 0 mm 4 mps 755 mmHg 87%
    20:00 -1°C° 0 mm 4 mps 755 mmHg 87%
    21:00 -1°C° 0 mm 4 mps 755 mmHg 88%
    22:00 -1°C° 0 mm 4 mps 755 mmHg 89%
    23:00 -1°C° 0 mm 4 mps 755 mmHg 90%

    Tomorrow, 20 January, Monday

    Time Temperature Precipitation Wind Pressure Humidity
    00:00 -1°C° 0 mm 4 mps 755 mmHg 89%
    01:00 0°C° 0 mm 4 mps 755 mmHg 89%
    02:00 0°C° 0 mm 4 mps 755 mmHg 88%
    03:00 0°C° 0 mm 4 mps 755 mmHg 88%
    04:00 0°C° 0 mm 4 mps 755 mmHg 89%
    05:00 0°C° 0 mm 5 mps 755 mmHg 89%
    06:00 0°C° 0 mm 5 mps 755 mmHg 90%
    07:00 0°C° 0 mm 4 mps 755 mmHg 91%
    08:00 0°C° 0 mm 4 mps 755 mmHg 92%
    09:00 0°C° 0 mm 5 mps 755 mmHg 91%
    10:00 0°C° 0 mm 5 mps 755 mmHg 91%
    11:00 0°C° 0 mm 5 mps 755 mmHg 90%
    12:00 0°C° 0 mm 5 mps 755 mmHg 90%
    13:00 0°C° 0 mm 5 mps 755 mmHg 90%
    14:00 0°C° 0 mm 5 mps 755 mmHg 90%
    15:00 0°C° 0 mm 5 mps 754 mmHg 91%
    16:00 -1°C° 0 mm 4 mps 754 mmHg 93%
    17:00 -1°C° 0 mm 4 mps 753 mmHg 94%
    18:00 -1°C° 0 mm 4 mps 753 mmHg 91%
    19:00 -1°C° 0 mm 5 mps 753 mmHg 87%
    20:00 -1°C° 0 mm 5 mps 753 mmHg 83%
    21:00 -1°C° 0 mm 5 mps 752 mmHg 82%
    22:00 -1°C° 0 mm 5 mps 751 mmHg 81%
    23:00 -1°C° 0 mm 4 mps 751 mmHg 80%

    Day after tomorrow, 21 January, Tuesday

    Time Temperature Precipitation Wind Pressure Humidity
    00:00 -1°C° 0 mm 4 mps 750 mmHg 80%
    01:00 -1°C° 0 mm 5 mps 750 mmHg 80%
    02:00 -1°C° 0 mm 5 mps 749 mmHg 80%
    03:00 -1°C° 0.2 mm 5 mps 748 mmHg 83%
    04:00 -1°C° 0.2 mm 5 mps 747 mmHg 85%
    05:00 -2°C° 0.2 mm 6 mps 746 mmHg 88%
    06:00 -1°C° 0.3 mm 6 mps 745 mmHg 88%
    07:00 -1°C° 0.3 mm 6 mps 745 mmHg 88%
    08:00 -1°C° 0.3 mm 6 mps 744 mmHg 88%
    09:00 +1°C° 0 mm 6 mps 743 mmHg 89%
    10:00 +1°C° 0 mm 6 mps 743 mmHg 89%
    11:00 +2°C° 0 mm 5 mps 742 mmHg 89%
    12:00 +2°C° 0.1 mm 5 mps 742 mmHg 89%
    13:00 +3°C° 0.1 mm 5 mps 742 mmHg 89%
    14:00 +3°C° 0.1 mm 5 mps 741 mmHg 89%
    15:00 +3°C° 0.2 mm 5 mps 740 mmHg 90%
    16:00 +3°C° 0.2 mm 5 mps 739 mmHg 91%
    17:00 +3°C° 0.2 mm 4 mps 739 mmHg 92%
    18:00 +3°C° 1.1 mm 4 mps 738 mmHg 93%
    19:00 +3°C° 1.1 mm 4 mps 738 mmHg 94%
    20:00 +3°C° 1.1 mm 4 mps 738 mmHg 95%
    21:00 +1°C° 0.4 mm 5 mps 738 mmHg 93%
    22:00 +1°C° 0.4 mm 5 mps 738 mmHg 91%
    23:00 -1°C° 0.4 mm 6 mps 738 mmHg 89%

    22 January, Wednesday

    Time Temperature Precipitation Wind Pressure Humidity
    00:00 -1°C° 0.1 mm 5 mps 738 mmHg 86%
    01:00 -1°C° 0.1 mm 5 mps 738 mmHg 82%
    02:00 -2°C° 0.1 mm 5 mps 739 mmHg 79%
    03:00 -2°C° 0 mm 5 mps 738 mmHg 79%
    04:00 -2°C° 0 mm 5 mps 738 mmHg 78%
    05:00 -4°C° 0 mm 5 mps 738 mmHg 78%
    06:00 -4°C° 0 mm 5 mps 737 mmHg 78%
    07:00 -4°C° 0 mm 5 mps 737 mmHg 78%
    08:00 -4°C° 0 mm 5 mps 737 mmHg 78%
    09:00 -3°C° 0.1 mm 6 mps 736 mmHg 78%
    10:00 -3°C° 0.1 mm 6 mps 736 mmHg 78%
    11:00 -3°C° 0.1 mm 6 mps 736 mmHg 77%
    12:00 -3°C° 0.2 mm 6 mps 736 mmHg 78%
    13:00 -2°C° 0.2 mm 5 mps 735 mmHg 78%
    14:00 -2°C° 0.2 mm 5 mps 735 mmHg 79%
    15:00 -3°C° 0 mm 4 mps 735 mmHg 78%
    16:00 -3°C° 0 mm 4 mps 735 mmHg 78%
    17:00 -4°C° 0 mm 4 mps 736 mmHg 77%
    18:00 -4°C° 0 mm 4 mps 736 mmHg 78%
    19:00 -4°C° 0 mm 4 mps 736 mmHg 78%
    20:00 -4°C° 0 mm 4 mps 737 mmHg 79%
    21:00 -4°C° 0 mm 4 mps 737 mmHg 79%
    22:00 -4°C° 0 mm 4 mps 737 mmHg 80%
    23:00 -5°C° 0 mm 5 mps 738 mmHg 81%

    23 January, Thursday

    Time Temperature Precipitation Wind Pressure Humidity
    00:00 -6°C° 0.1 mm 5 mps 738 mmHg 76%
    01:00 -6°C° 0.1 mm 6 mps 739 mmHg 71%
    02:00 -6°C° 0.1 mm 6 mps 739 mmHg 65%
    03:00 -8°C° 0 mm 6 mps 740 mmHg 64%
    04:00 -8°C° 0 mm 6 mps 740 mmHg 64%
    05:00 -9°C° 0 mm 6 mps 741 mmHg 63%
    06:00 -9°C° 0 mm 6 mps 741 mmHg 61%
    07:00 -9°C° 0 mm 6 mps 742 mmHg 60%
    08:00 -8°C° 0 mm 5 mps 742 mmHg 59%
    09:00 -9°C° 0.1 mm 6 mps 743 mmHg 61%
    10:00 -8°C° 0.1 mm 7 mps 743 mmHg 63%
    11:00 -8°C° 0.1 mm 7 mps 744 mmHg 65%
    12:00 -8°C° 0 mm 7 mps 744 mmHg 61%
    13:00 -7°C° 0 mm 7 mps 744 mmHg 56%
    14:00 -6°C° 0 mm 6 mps 745 mmHg 52%
    15:00 -8°C° 0 mm 6 mps 745 mmHg 55%
    16:00 -7°C° 0 mm 5 mps 746 mmHg 57%
    17:00 -8°C° 0 mm 4 mps 746 mmHg 60%
    18:00 -8°C° 0 mm 4 mps 747 mmHg 62%
    19:00 -8°C° 0 mm 4 mps 747 mmHg 64%
    20:00 -8°C° 0 mm 3 mps 747 mmHg 66%
    21:00 -8°C° 0 mm 3 mps 747 mmHg 66%
    22:00 -8°C° 0 mm 3 mps 747 mmHg 65%
    23:00 -8°C° 0 mm 3 mps 747 mmHg 65%

    24 January, Friday

    Time Temperature Precipitation Wind Pressure Humidity
    00:00 -8°C° 0 mm 3 mps 746 mmHg 67%
    01:00 -7°C° 0 mm 3 mps 746 mmHg 69%
    02:00 -7°C° 0 mm 3 mps 745 mmHg 71%
    03:00 -7°C° 0.2 mm 3 mps 744 mmHg 78%
    04:00 -7°C° 0.2 mm 4 mps 743 mmHg 86%
    05:00 -7°C° 0.2 mm 4 mps 742 mmHg 93%
    06:00 -6°C° 0.5 mm 5 mps 741 mmHg 93%
    07:00 -6°C° 0.5 mm 5 mps 740 mmHg 94%
    08:00 -5°C° 0.5 mm 5 mps 739 mmHg 94%
    09:00 -4°C° 0.1 mm 5 mps 738 mmHg 92%
    10:00 -2°C° 0.1 mm 4 mps 738 mmHg 90%
    11:00 0°C° 0.1 mm 4 mps 737 mmHg 88%
    12:00 0°C° 0 mm 5 mps 737 mmHg 84%
    13:00 0°C° 0 mm 5 mps 737 mmHg 80%
    14:00 +1°C° 0 mm 6 mps 737 mmHg 76%
    15:00 -1°C° 0 mm 6 mps 737 mmHg 75%
    16:00 -2°C° 0 mm 6 mps 738 mmHg 75%
    17:00 -3°C° 0 mm 6 mps 739 mmHg 74%
    18:00 -3°C° 0 mm 6 mps 739 mmHg 73%
    19:00 -4°C° 0 mm 5 mps 740 mmHg 72%
    20:00 -4°C° 0 mm 5 mps 740 mmHg 71%
    21:00 -4°C° 0 mm 5 mps 740 mmHg 73%
    22:00 -4°C° 0 mm 5 mps 741 mmHg 75%
    23:00 -4°C° 0 mm 4 mps 741 mmHg 76%
    Show more